Regional Weather Roundup
Issued by NWS

Home | Current Version | Previous Version | Text Only | Print | Product List | Glossary Off
Versions: 1 2 3 4 5 6 7 8 9 10 11 12 13 14 15 16 17 18 19 20 21 22 23 24 25 26 27 28 29 30 31 32 33 34 35 36 37 38 39 40 41 42 43 44 45 46 47 48 49 50

000
ASUS45 KTFX 310110
RWRMT
MONTANA REGIONAL WEATHER ROUNDUP
NATIONAL WEATHER SERVICE GREAT FALLS MT
700 PM MDT THU JUL 30 2015

NOTE: "FAIR" INDICATES FEW OR NO CLOUDS BELOW 12000 FEET WITH NO
SIGNIFICANT WEATHER AND/OR OBSTRUCTIONS TO VISIBILITY.

MTZ001>007-043-310200-
WEST OF THE DIVIDE

CITY           SKY/WX    TMP DP  RH WIND       PRES   REMARKS
KALISPELL      CLEAR     88  36  15 S10       30.12S
MISSOULA       SUNNY     88  34  14 S6        30.14F
BUTTE          SUNNY     81  31  16 CALM      30.30F
MULLAN PASS    SUNNY     77  31  18 VRB3      30.36F
DEER LODGE       N/A     84  36  17 NE3       30.28F
EUREKA           N/A     91  34  13 SW7       30.11S
HAMILTON         N/A     90  37  15 SE2       30.16F
LIBBY            N/A     91  30  11 NW7       30.11S
PLAINS           N/A     94  41  16 W5        30.09F HX  90
RONAN            N/A     90  39  16 CALM      30.18F
$$

MTZ008-052>055-310200-
SOUTHWEST MONTANA

CITY           SKY/WX    TMP DP  RH WIND       PRES   REMARKS
BOZEMAN        SUNNY     84  44  24 E6        30.24F
DILLON         SUNNY     81  43  26 S10       30.26F
W YELLOWSTONE  SUNNY     75  30  19 S9        30.40F
THREE FORKS      N/A     86  44  22 E7        30.19F
TWIN BRIDGES     N/A     86  36  16 SE1       30.22F
$$

MTZ009-010-012-014-046-048-049-054-310200-
EAST SLOPES AND CENTRAL MONTANA

CITY           SKY/WX    TMP DP  RH WIND       PRES   REMARKS
CUT BANK       SUNNY     87  31  13 W12       30.17S
GREAT FALLS    SUNNY     85  36  17 E7        30.18F
MALMSTROM AFB  SUNNY     85  36  17 E2        30.17F
HELENA         SUNNY     89  39  17 N7        30.17F
CONRAD           N/A     86  46  24 E1        30.18F
$$

MTZ011-013-016-021-045-047-050-051-310200-
NORTH CENTRAL MONTANA

CITY           SKY/WX    TMP DP  RH WIND       PRES   REMARKS
HAVRE          FAIR      87  40  19 NE6       30.11F
LEWISTOWN      SUNNY     83  43  24 NE6       30.24F
CHINOOK          N/A     84  48  28 E5        30.12F
$$

MTZ017>020-022>027-061-062-310200-
NORTHEAST MONTANA

CITY           SKY/WX    TMP DP  RH WIND       PRES   REMARKS
GLASGOW        SUNNY     84  41  21 NW12      30.13F
JORDAN           N/A     85  40  20 NE9       30.16F
SIDNEY         SUNNY    N/A N/A N/A N6        30.12F
WOLF POINT     SUNNY     86  42  21 NW10      30.13F
MALTA            N/A     86  46  24 W3        30.10F
PLENTYWOOD       N/A     79  46  31 NW9       30.14F
POPLAR           N/A     81  46  30 W6        30.14S
SCOBEY           N/A     78  47  33 N6        30.14F
$$

MTZ028>42-056>058-310200-
SOUTHCENTRAL AND SOUTHEAST MONTANA

CITY           SKY/WX    TMP DP  RH WIND       PRES   REMARKS
BAKER          SUNNY     84  42  22 NW13G20   30.18F
BILLINGS       SUNNY     88  35  15 E8        30.20F
LIVINGSTON     SUNNY     87  32  14 N13       30.24F
MILES CITY     SUNNY     88  40  18 NW14      30.14F
EKALAKA          N/A     82  38  20 N9        30.17S
FORSYTH          N/A     88  39  18 NW7       30.16S
LAUREL           N/A     88  41  19 NE5       30.16F
ROUNDUP          N/A     86  39  18 N6        30.10S
$$

REGIONAL REPORTS...DAKOTAS

CITY           SKY/WX    TMP DP  RH WIND       PRES   REMARKS
WILLISTON      SUNNY     82  42  24 N10       30.13F
MINOT          SUNNY     75  47  36 NW14      30.11S
DICKINSON      SUNNY     80  44  27 N7        30.15S
BEACH          FAIR      79  48  34 CALM      30.18S
CROSBY         FAIR      72  50  46 N6        30.14F
BISMARCK       SUNNY     81  46  29 N10       30.12F
GRAND FORKS    PTCLDY    77  55  46 NW12      29.98R
FARGO          CLEAR     79  55  43 W10       30.01S
BUFFALO SD       N/A     86  41  20 N7        30.12S
RAPID CITY     SUNNY     83  48  29 CALM      30.20F
$$

REGIONAL REPORTS...WYOMING/IDAHO/WASHINGTON

CITY           SKY/WX    TMP DP  RH WIND       PRES   REMARKS
GILLETTE       SUNNY     86  34  15 N5        30.24F
SHERIDAN       SUNNY     88  39  17 N5        30.23S
BUFFALO WY     SUNNY     82  39  21 N12       30.30S
CODY           SUNNY     82  32  16 E9        30.28S
YELLOWSTONE LA   N/A     70  32  24 SE3       30.51S
IDAHO FALLS    SUNNY     86  32  14 SE6       30.26F
SALMON         SUNNY     86  45  23 NW3       30.15F
BOISE          SUNNY     93  34  12 VRB5      30.12F
SPOKANE        SUNNY     94  29  10 W8        30.09F
$$

REGIONAL REPORTS...ALBERTA

CITY           SKY/WX    TMP DP  RH WIND       PRES   REMARKS
EDMONTON       SUNNY     73  41  31 NW8       30.12S
CALGARY        PTSUNNY   77  48  36 E13G20    30.16S
LETHBRIDGE     MOSUNNY   86  36  16 S10G22    30.10F
MEDICINE HAT   MOSUNNY   84  39  20 CALM      30.11F
WATERTON GATE    N/A     82  37  20 W10         N/A
CARDSTON         N/A     84  36  17 W7          N/A
MILK RIVER       N/A     86  36  16 N3          N/A
ONEFOUR          N/A     82  41  23 N7          N/A
$$

REGIONAL REPORTS...SASKATCHEWAN

CITY           SKY/WX    TMP DP  RH WIND       PRES   REMARKS
SWIFT CURRENT  SUNNY     77  43  29 NW7       30.14F
REGINA         MOSUNNY   75  54  46 NW9       30.11F
SASKATOON      MOSUNNY   73  46  38 NW13G20   30.09S
CYPRESS HILLS    N/A     73  37  27 NW5         N/A
VAL MARIE        N/A     79  46  31 N10         N/A
ROCKGLEN         N/A     75  50  41 NW8         N/A
$$



USA.gov is the U.S. government's official web portal to all federal, state and local government web resources and services.